Augusta Bush, GA

12:51 PM EDT on August 20, 2017 (GMT -0400)
Augusta Regional At Bush

Weather History for KAGS - December, 2012

Change the Weather History Date:

Wednesday, December 19, 2012

  Actual Average Record
Temperature  
Mean Temperature 51 °F 46 °F  
Max Temperature 71 °F 59 °F 82 °F (1967)
Min Temperature 30 °F 34 °F 13 °F (1953)
Degree Days  
Heating Degree Days 14 19  
Month to date heating degree days 184 320  
Since 1 July heating degree days 684 742  
Cooling Degree Days 0 0  
Month to date cooling degree days 0 0  
Year to date cooling degree days 2163 2086  
Moisture  
Dew Point 37 °F    
Average Humidity 66    
Maximum Humidity 100    
Minimum Humidity 31    
Precipitation  
Precipitation 0.00 in 0.11 in 1.34 in (1995)
Month to date precipitation 1.43 2.01  
Year to date precipitation 32.84 42.19  
Sea Level Pressure  
Sea Level Pressure 30.07 in    
Wind  
Wind Speed 2 mph (WSW)    
Max Wind Speed 12 mph    
Max Gust Speed 20 mph    
Visibility 10 miles    
Events      
T = Trace of Precipitation, MM = Missing Value Source: NWS Daily Summary

Daily Weather History Graph

Daily Weather History Graph

Search for Another Location

Airport or City:

Trip Planner

Search our weather history database for the weather conditions in past years. The results will help you decide how hot, cold, wet, or windy it might be!

Date:

Astronomy

Dec. 19, 2012 Rise Set
Actual Time 7:26 AM EST 5:23 PM EST
Civil Twilight 6:59 AM EST 5:51 PM EST
Nautical Twilight 6:28 AM EST 6:22 PM EST
Astronomical Twilight 5:58 AM EST 6:52 PM EST
Moon 11:54 AM EST (12/19) No Moon Set
Length of Visible Light 10h 51m
Length of Day
9h 56m
Waxing Crescent, 45% of the Moon is Illuminated
Dec 19
Waxing Crescent
Dec 20
First Quarter
Dec 28
Full
Jan 4
Last Quarter
Jan 11
New

Hourly Weather History & Observations

Time (EST) Temp. Windchill Dew Point Humidity Pressure Visibility Wind Dir Wind Speed Gust Speed Precip Events Conditions
12:53 AM 36.0 °F 33.3 °F 34.0 °F 93% 30.02 in 10.0 mi South 3.5 mph - N/A   Clear
1:53 AM 34.0 °F - 32.0 °F 92% 30.03 in 10.0 mi Calm Calm - N/A   Clear
2:53 AM 35.1 °F - 33.1 °F 92% 30.04 in 10.0 mi Calm Calm - N/A   Clear
3:53 AM 32.0 °F - 30.9 °F 96% 30.04 in 10.0 mi Calm Calm - N/A   Clear
4:53 AM 33.1 °F - 30.9 °F 92% 30.04 in 10.0 mi Calm Calm - N/A   Clear
5:53 AM 30.9 °F - 30.0 °F 96% 30.06 in 10.0 mi Calm Calm - N/A   Clear
6:53 AM 30.9 °F - 30.0 °F 96% 30.08 in 10.0 mi Calm Calm - N/A   Clear
7:53 AM 33.1 °F - 30.9 °F 92% 30.09 in 10.0 mi Calm Calm - N/A   Clear
8:53 AM 39.0 °F - 37.0 °F 93% 30.12 in 7.0 mi Calm Calm - N/A   Clear
9:53 AM 50.0 °F - 39.0 °F 66% 30.12 in 10.0 mi Calm Calm - N/A   Clear
10:53 AM 61.0 °F - 39.0 °F 44% 30.12 in 10.0 mi NNE 3.5 mph - N/A   Clear
11:53 AM 66.0 °F - 36.0 °F 33% 30.10 in 10.0 mi West 8.1 mph - N/A   Clear
12:53 PM 68.0 °F - 37.0 °F 32% 30.07 in 10.0 mi WNW 6.9 mph - N/A   Clear
1:53 PM 70.0 °F - 37.9 °F 31% 30.06 in 10.0 mi WSW 10.4 mph - N/A   Clear
2:53 PM 70.0 °F - 37.9 °F 31% 30.04 in 10.0 mi SW 4.6 mph - N/A   Clear
3:53 PM 69.1 °F - 37.9 °F 32% 30.04 in 10.0 mi WSW 5.8 mph - N/A   Clear
4:53 PM 66.0 °F - 39.9 °F 38% 30.05 in 10.0 mi SSW 3.5 mph - N/A   Clear
5:53 PM 55.9 °F - 43.0 °F 62% 30.06 in 10.0 mi Calm Calm - N/A   Clear
6:53 PM 50.0 °F - 43.0 °F 77% 30.08 in 10.0 mi Calm Calm - N/A   Clear
7:53 PM 48.9 °F - 42.1 °F 77% 30.09 in 10.0 mi Calm Calm - N/A   Clear
8:53 PM 44.1 °F - 39.9 °F 85% 30.10 in 10.0 mi Calm Calm - N/A   Clear
9:53 PM 43.0 °F - 39.9 °F 89% 30.10 in 10.0 mi Calm Calm - N/A   Clear
10:53 PM 43.0 °F - 41.0 °F 93% 30.10 in 10.0 mi Calm Calm - N/A   Clear
11:53 PM 41.0 °F - 39.9 °F 96% 30.11 in 8.0 mi Calm Calm - N/A   Clear